Weather in Yashmakovo

Russia / Mari El Republic     56°45′40″N   48°05′21″E
temp.,
°C
wind,
m/s
gust,
m/s
humid.,
%
clouds,
%
prec.,
mm/h
press.,
hPa
HPBL,
m
16 september, thu
thu1600:00+5w4118198 0.1 1007487
03:00+5nw597992 0.1 1008973
06:00+4nw4985100 0.0 1009731
09:00+6nnw5882100 0.1 1010754
12:00+7nw5881100 0.2 1011896
15:00+6nw5886100 0.4 1012911
18:00+6nw4108129 0.0 1013532
21:00+6nw4979100 0.0 1013572
17 september, fri
fri1700:00+6nw4980100 0.1 1014390
03:00+6wnw4973100 0.1 1014420
06:00+5wnw3874100 0.1 1014345
09:00+7nnw475988 0.1 10151130
12:00+8nw464893 0.1 10151506
15:00+9nw5651100 0.1 10151381
18:00+7wnw3758100 0.1 1016265
21:00+3nw247538 0.1 101671
18 september, sat
sat1800:00+2nnw369645 0.0 1017146
03:00+4nw4787100 0.1 1018722
06:00+5nnw4892100 0.1 1019728
09:00+6n5763100 0.1 10201342
12:00+7n4648100 0.0 10211601
15:00+8nnw5750100 0.0 10221715
18:00+6nnw4862100 0.0 1023709
21:00+3n4873100 0.1 1024521
19 september, sun
sun1900:00+5n5754100 0.0 10241148
03:00+4nw385979 0.0 1025357
06:000nw38755 0.0 1026180
09:00+6nnw46555 0.0 1026833
12:00+9nnw34445 0.0 10261358
15:00+10nnw454315 0.0 10261540
18:00+5n226264 0.0 102628
21:00+3ene497693 0.0 1028294
20 september, mon
mon2000:000ne2583100 0.0 1029126
03:000ene2581100 0.0 1029132
06:000ene2578100 0.0 1030141
09:00+5e3556100 0.0 1030855
12:00+7e3448100 0.0 10301165
15:00+8e3447100 0.0 10291234
18:00+5e246084 0.0 102963
21:00+3e377191 0.0 1029133